Theta_e
328 326 325 328 330 329 329 328 323 321 327 322 321 319 317 316 314 312 310 312 310 311 312 311 310 310 310 310 310 309 308 308
329 327 327 329 331 330 330 328 327 327 325 322 320 319 317 315 313 309 310 310 310 310 311 311 310 310 309 309 309 308 307 304
329 329 329 330 331 331 329 328 327 324 322 320 320 319 316 313 312 311 310 310 310 309 309 309 309 308 307 307 307 306 304 302
330 330 331 331 331 330 329 327 324 321 320 318 315 312 313 314 313 311 311 310 309 308 308 307 307 306 304 303 304 304 302 301
331 331 331 330 330 329 325 323 320 318 315 315 315 315 314 312 311 310 309 307 306 304 303 303 303 304 303 302 303 302 301 300
331 332 331 329 328 326 322 319 315 314 314 314 314 313 311 309 306 303 301 300 299 298 298 298 299 302 303 303 303 302 300 299
329 328 327 326 323 320 318 315 314 313 313 312 311 308 305 303 301 299 298 298 298 298 298 298 299 300 302 302 302 300 299 298
323 323 320 318 317 316 315 314 313 312 311 308 305 303 301 300 299 298 298 298 297 297 298 299 300 300 301 300 299 298 298 296
320 319 317 317 317 316 314 313 312 310 306 303 305 302 301 300 299 298 297 297 297 297 298 300 300 300 299 298 298 297 297 295
318 317 317 316 316 315 314 313 310 305 304 309 308 301 298 299 299 298 296 296 296 296 297 299 299 299 298 298 297 296 295 294
318 318 318 317 316 314 313 311 306 305 308 305 301 299 300 299 298 297 296 296 296 296 296 297 298 298 298 296 296 295 294 293
319 319 318 316 315 314 311 307 306 305 304 301 300 300 300 299 298 296 296 295 295 295 295 296 296 296 296 295 295 295 293 293
319 319 317 315 314 312 309 307 305 304 302 302 300 300 299 298 297 296 296 295 295 295 295 295 295 295 294 294 293 293 292 292
320 319 316 315 313 310 307 306 305 303 301 300 300 300 299 298 297 296 295 295 295 295 295 295 294 294 294 294 292 292 292 292
320 319 316 315 312 309 306 305 304 301 300 300 299 299 299 298 297 296 295 294 294 295 295 294 294 293 292 292 292 291 291 291
320 318 315 314 311 308 306 305 303 300 300 299 299 299 298 297 297 296 295 294 294 294 294 294 294 293 292 290 291 291 290 289
318 316 314 312 310 307 306 305 302 300 299 299 299 298 297 296 296 295 295 294 294 294 294 294 294 293 292 290 289 288 288 288
316 315 313 311 309 307 306 303 301 300 299 298 298 297 296 296 295 295 294 294 294 294 293 293 294 293 292 289 288 288 287 287
315 314 312 311 309 306 305 302 300 299 298 297 297 296 295 295 294 294 294 294 294 293 293 292 292 292 291 289 288 287 287 286
Wind_Speed
16 16 17 17 17 16 16 14 13 9 1 2 4 7 6 5 4 3 2 4 5 4 7 9 11 11 14 15 17 18 19 22
15 16 17 17 17 17 15 12 9 6 5 5 6 4 4 4 2 1 5 6 6 10 7 10 14 15 16 18 21 21 21 22
15 16 17 18 17 16 15 12 9 9 7 7 6 4 4 4 1 9 6 7 7 9 12 14 15 17 19 20 19 21 19 18
16 17 18 18 17 16 14 12 13 12 10 5 4 3 2 1 3 4 7 9 10 13 15 17 18 19 20 21 19 17 18 17
17 17 18 19 18 16 15 15 13 9 9 8 7 4 1 1 3 6 9 11 13 15 17 19 19 19 20 19 16 14 17 17
20 21 20 19 18 17 17 15 11 11 10 8 5 4 3 2 4 8 10 12 14 15 16 18 18 18 18 17 16 16 15 17
21 21 22 20 19 18 17 15 13 11 10 9 7 2 2 2 6 8 10 12 13 14 15 17 17 16 15 15 13 13 13 15
24 24 22 21 19 18 17 15 13 12 10 8 4 4 4 5 7 8 10 11 12 14 17 16 15 13 12 13 13 19 16 13
25 24 22 20 19 18 17 16 15 13 11 8 1 1 4 3 7 8 9 11 13 15 15 15 12 11 13 12 15 13 13 14
26 23 22 20 19 20 19 18 16 14 11 5 9 3 5 5 5 8 9 11 13 13 13 13 12 12 13 14 15 16 17 13
25 24 22 21 21 21 20 20 17 14 5 5 5 3 1 3 6 9 10 11 12 13 13 12 14 13 17 17 19 17 14 12
25 24 23 23 22 23 22 20 18 11 7 9 6 5 4 5 6 8 10 12 12 13 13 13 13 16 18 19 19 17 15 14
25 24 24 24 25 24 24 21 16 12 12 8 8 7 6 7 8 9 11 12 13 13 13 13 15 17 17 16 14 14 16 16
26 26 26 26 26 26 25 20 16 15 11 10 9 9 8 9 9 10 11 12 13 12 12 14 15 15 14 14 14 15 15 14
27 27 27 27 27 27 24 19 17 16 14 12 11 11 10 11 11 11 12 13 13 12 12 14 14 13 13 13 14 15 16 19
28 27 27 27 27 27 23 19 18 17 14 12 11 11 11 12 13 13 13 13 12 12 13 14 12 12 12 13 15 15 14 17
26 27 27 28 28 28 23 20 19 17 14 12 11 11 12 14 14 14 14 14 13 13 14 15 14 13 16 14 14 15 14 16
25 27 28 28 28 26 23 21 18 17 13 11 11 11 12 14 14 16 15 15 14 14 14 14 13 14 16 15 15 17 14 17
22 24 25 25 25 25 22 20 18 15 12 10 11 12 13 15 16 17 17 17 16 15 14 14 12 15 17 19 16 17 14 15
Wind_Direction
174 176 178 178 176 170 169 168 176 198 237 99 90 117 112 99 88 8 21 339 317 320 306 310 326 315 310 303 308 308 305 309
179 181 183 184 183 177 176 173 174 163 150 139 130 128 126 94 65 342 338 325 338 326 315 315 315 311 309 308 306 304 304 306
180 180 183 184 183 182 174 177 163 157 155 158 152 145 149 141 20 326 336 337 339 331 317 315 309 309 308 306 304 300 301 307
182 177 176 176 178 173 172 168 162 161 168 160 156 181 331 65 344 330 322 333 329 322 315 311 307 307 305 303 302 296 300 302
181 176 174 170 167 166 166 164 165 162 145 161 148 138 97 18 346 313 327 320 319 316 313 311 307 304 303 304 300 291 301 299
170 167 162 162 165 165 164 163 158 147 144 137 138 126 84 345 333 332 329 320 319 316 314 305 299 301 295 292 288 288 290 296
165 164 163 164 162 164 164 157 151 144 150 168 173 162 83 9 340 340 328 324 320 318 317 313 306 299 294 288 282 283 280 294
168 167 167 167 169 167 164 162 157 149 143 140 114 72 38 12 357 339 333 323 323 321 321 316 311 299 285 271 268 266 286 296
177 177 176 177 176 174 170 168 166 159 153 135 96 356 340 338 341 335 325 324 324 320 319 317 310 289 279 271 285 296 293 297
186 187 186 186 185 181 176 178 174 162 155 288 307 301 314 327 335 327 323 326 320 315 317 312 292 290 279 301 299 298 290 284
194 193 192 195 192 189 181 182 178 173 258 287 167 270 277 296 322 327 327 319 317 314 313 306 295 286 292 298 295 293 285 284
199 197 201 198 194 191 185 182 183 189 186 175 253 201 232 283 311 318 318 315 315 311 307 300 292 289 290 293 291 283 279 284
206 204 202 198 195 193 188 188 190 187 187 254 200 208 240 281 297 307 309 311 309 306 300 299 299 295 292 292 283 279 284 288
209 208 205 201 199 196 193 191 192 195 209 199 210 228 254 274 285 294 302 305 305 302 301 301 299 292 291 287 283 281 291 300
215 211 209 206 203 200 198 195 197 201 201 212 228 237 258 267 274 287 296 300 298 297 296 296 296 294 290 289 291 291 294 292
219 215 214 210 206 204 202 201 202 201 208 220 234 246 260 268 271 283 287 295 298 296 295 289 282 283 280 282 294 298 299 300
219 219 218 214 210 208 205 206 201 204 213 222 235 249 263 270 274 282 287 295 298 297 297 295 288 282 265 300 308 300 307 303
221 221 220 217 214 210 209 205 204 207 218 233 249 261 271 273 278 282 282 289 295 296 297 295 282 280 274 296 295 298 304 305
229 225 223 220 217 213 211 207 210 213 222 243 261 273 279 281 280 283 283 284 292 293 292 285 283 269 271 286 288 305 303 302